Year,Month,Day,Hour,Minute,Value (Times are PST for temperature in C)
2016,10,18,15,19,13.50
2016,10,18,15,20,13.50
2016,10,18,15,21,13.60
2016,10,18,15,22,13.70
2016,10,18,15,23,13.80
2016,10,18,15,24,13.90
2016,10,18,15,25,13.90
2016,10,18,15,26,14.00
2016,10,18,15,27,14.10
2016,10,18,15,28,14.20
2016,10,18,15,29,14.30
2016,10,18,15,30,14.40
2016,10,18,15,31,14.50
2016,10,18,15,32,14.60
2016,10,18,15,33,14.60
2016,10,18,15,34,14.70
2016,10,18,15,35,14.70
2016,10,18,15,36,14.70
2016,10,18,15,37,14.80
2016,10,18,15,38,14.90
2016,10,18,15,39,14.90
2016,10,18,15,40,14.90
2016,10,18,15,41,14.90
2016,10,18,15,42,14.80
2016,10,18,15,43,14.80
2016,10,18,15,44,14.80
2016,10,18,15,45,14.80
2016,10,18,15,46,14.80
2016,10,18,15,47,14.80
2016,10,18,15,48,14.80
2016,10,18,15,49,14.80
2016,10,18,15,50,14.80
2016,10,18,15,51,14.80
2016,10,18,15,52,14.80
2016,10,18,15,53,14.80
2016,10,18,15,54,14.80
2016,10,18,15,55,14.80
2016,10,18,15,56,14.90
2016,10,18,15,57,14.90
2016,10,18,15,58,14.90
2016,10,18,15,59,15.00
2016,10,18,16,00,15.10
2016,10,18,16,01,15.10
2016,10,18,16,02,15.20
2016,10,18,16,03,15.20
2016,10,18,16,04,15.10
2016,10,18,16,05,15.10
2016,10,18,16,06,15.10
2016,10,18,16,07,15.00
2016,10,18,16,08,14.90
2016,10,18,16,09,14.80
2016,10,18,16,10,14.80
2016,10,18,16,11,14.80
2016,10,18,16,12,14.80
2016,10,18,16,13,14.80
2016,10,18,16,14,14.70
2016,10,18,16,15,14.70
2016,10,18,16,16,14.70
2016,10,18,16,17,14.70
2016,10,18,16,18,14.70
2016,10,18,16,19,14.70
2016,10,18,16,20,14.70
2016,10,18,16,21,14.70
2016,10,18,16,22,14.60
2016,10,18,16,23,14.60
2016,10,18,16,24,14.60
2016,10,18,16,25,14.60
2016,10,18,16,26,14.50
2016,10,18,16,27,14.50
2016,10,18,16,28,14.50
2016,10,18,16,29,14.50
2016,10,18,16,30,14.50
2016,10,18,16,31,14.50
2016,10,18,16,32,14.50
2016,10,18,16,33,14.40
2016,10,18,16,34,14.40
2016,10,18,16,35,14.40
2016,10,18,16,36,14.40
2016,10,18,16,37,14.40
2016,10,18,16,38,14.40
2016,10,18,16,39,14.40
2016,10,18,16,40,14.30
2016,10,18,16,41,14.30
2016,10,18,16,42,14.30
2016,10,18,16,43,14.30
2016,10,18,16,44,14.30
2016,10,18,16,45,14.30
2016,10,18,16,46,14.20
2016,10,18,16,47,14.20
2016,10,18,16,48,14.20
2016,10,18,16,49,14.20
2016,10,18,16,50,14.10
2016,10,18,16,51,14.10
2016,10,18,16,52,14.10
2016,10,18,16,53,14.10
2016,10,18,16,54,14.10
2016,10,18,16,55,14.10
2016,10,18,16,56,14.10
2016,10,18,16,57,14.00
2016,10,18,16,58,14.00
2016,10,18,16,59,14.00
2016,10,18,17,00,13.90
2016,10,18,17,01,13.90
2016,10,18,17,02,13.90
2016,10,18,17,03,13.90
2016,10,18,17,04,13.90
2016,10,18,17,05,13.90
2016,10,18,17,06,13.90
2016,10,18,17,07,14.00
2016,10,18,17,08,14.00
2016,10,18,17,09,14.00
2016,10,18,17,10,14.00
2016,10,18,17,11,14.00
2016,10,18,17,12,13.90
2016,10,18,17,13,13.90
2016,10,18,17,14,13.90
2016,10,18,17,15,14.00
2016,10,18,17,16,14.00
2016,10,18,17,17,14.00
2016,10,18,17,18,14.00
2016,10,18,17,19,13.90
2016,10,18,17,20,13.90
2016,10,18,17,21,13.90
2016,10,18,17,22,13.90
2016,10,18,17,23,13.90
2016,10,18,17,24,13.90
2016,10,18,17,25,13.80
2016,10,18,17,26,13.80
2016,10,18,17,27,13.80
2016,10,18,17,28,13.80
2016,10,18,17,29,13.70
2016,10,18,17,30,13.70
2016,10,18,17,31,13.70
2016,10,18,17,32,13.70
2016,10,18,17,33,13.70
2016,10,18,17,34,13.70
2016,10,18,17,35,13.70
2016,10,18,17,36,13.70
2016,10,18,17,37,13.60
2016,10,18,17,38,13.60
2016,10,18,17,39,13.60
2016,10,18,17,40,13.50
2016,10,18,17,41,13.50
2016,10,18,17,42,13.50
2016,10,18,17,43,13.40
2016,10,18,17,44,13.40
2016,10,18,17,45,13.40
2016,10,18,17,46,13.40
2016,10,18,17,47,13.40
2016,10,18,17,48,13.30
2016,10,18,17,49,13.30
2016,10,18,17,50,13.30
2016,10,18,17,51,13.30
2016,10,18,17,52,13.20
2016,10,18,17,53,13.20
2016,10,18,17,54,13.20
2016,10,18,17,55,13.10
2016,10,18,17,56,13.10
2016,10,18,17,57,13.00
2016,10,18,17,58,13.00
2016,10,18,17,59,12.90
2016,10,18,18,00,12.90
2016,10,18,18,01,12.90
2016,10,18,18,02,12.90
2016,10,18,18,03,12.90
2016,10,18,18,04,12.90
2016,10,18,18,05,12.90
2016,10,18,18,06,12.90
2016,10,18,18,07,12.90
2016,10,18,18,08,12.90
